Location: Moscow
(38.8570°N, 84.2291°W)
Time: 03:02:21
(UTC+00:00)

CZ-2D R/B - Visible Passes

Search period start: 12 February 2026 00:00
Search period end: 22 February 2026 00:00
Orbit: 389 x 399 km, 97.4° (Epoch: 11 February)

Date Brightness Start Highest point End Pass type
(mag) Time Alt. Az. Time Alt. Az. Time Alt. Az.
13 Feb 5.2 00:03:17 10° SSW 00:05:55 26° W 00:08:34 10° NW visible
13 Feb 6.9 11:19:58 10° E 11:20:07 10° E 11:20:15 10° E visible
14 Feb 4.5 11:56:50 10° NNE 11:59:41 37° E 12:02:32 10° SSE visible
14 Feb 4.1 23:50:10 10° S 23:53:05 42° W 23:56:01 10° NNW visible
16 Feb 6.6 00:31:27 10° WSW 00:32:32 11° W 00:33:37 10° WNW visible
16 Feb 5.6 11:44:07 10° NE 11:46:38 23° E 11:49:08 10° SSE visible
16 Feb 2.9 23:36:57 10° S 23:39:59 74° W 23:43:02 10° NNW visible
18 Feb 6.0 00:17:05 10° SW 00:19:14 18° W 00:21:23 10° NW visible
18 Feb 6.3 11:31:25 10° ENE 11:33:17 15° E 11:35:07 10° SE visible
20 Feb 5.1 00:02:59 10° SSW 00:05:39 28° W 00:08:20 10° NW visible
21 Feb 3.9 23:48:54 10° S 23:51:50 47° W 23:54:47 10° NNW visible
